This demonstration page uses our WeatherBlox Daily Observations layout. Learn more.

Left ArrowRight Arrow

41.55636, -103.73856

Hourly Observations for July 3, 2022

Temp ( °F °C ) Dew Point ( °F °C ) Humidity (%) Winds ( mph kmh ) Pressure ( in mb ) Visibility ( mi km ) Precip ( " mm )
12:58 am 00:58 Clear 70 20.9 58 14.5 67 67 SSE 24 39 29.80 1009 10 16 0.00 0.00
1:58 am 01:58 Clear 68 20.1 58 14.4 70 70 SSE 28 44 29.80 1009 10 16 0.00 0.00
2:58 am 02:58 Partly Cloudy 68 19.9 58 14.7 72 72 SSE 28 44 29.78 1009 10 16 0.00 0.00
3:58 am 03:58 Clear 66 19.1 59 14.8 76 76 SSE 26 43 29.78 1009 10 16 0.00 0.00
4:58 am 04:58 Clear 67 19.3 57 13.9 71 71 S 24 39 29.78 1009 10 16 0.00 0.00
5:58 am 05:58 Sunny 65 18.6 57 13.9 74 74 S 18 30 29.78 1009 10 16 0.00 0.00
6:58 am 06:58 Sunny 69 20.5 58 14.4 68 68 S 26 43 29.77 1008 10 16 0.00 0.00
7:58 am 07:58 Sunny 76 24.2 57 14 53 53 S 25 41 29.76 1008 10 16 0.00 0.00
8:58 am 08:58 Sunny 78 25.6 54 12.4 44 44 S 23 37 29.78 1008 10 16 0.00 0.00
9:58 am 09:58 Sunny 85 29.7 47 8.1 26 26 SSW 21 33 29.76 1008 10 16 0.00 0.00
10:58 am 10:58 Sunny 88 31.2 48 8.8 25 25 SSW 16 26 29.75 1008 10 16 0.00 0.00
11:58 am 11:58 Sunny 92 33.1 45 7.1 20 20 SW 18 30 29.73 1007 10 16 0.00 0.00
12:58 pm 12:58 Sunny 93 34 43 6.3 18 18 S 8 13 29.73 1007 10 16 0.00 0.00
1:58 pm 13:58 Sunny 94 34.6 43 6 17 17 S 15 24 29.69 1006 10 16 0.00 0.00
2:58 pm 14:58 Mostly Cloudy 92 33.6 43 6 18 18 S 13 20 29.69 1005 10 16 0.00 0.00
3:58 pm 15:58 Sunny 92 33.3 45 7.3 20 20 SSE 15 24 29.67 1005 10 16 0.00 0.00
4:58 pm 16:58 Mostly Cloudy 89 31.8 44 6.8 21 21 S 14 22 29.69 1005 10 16 0.00 0.00
5:58 pm 17:58 Partly Cloudy 76 24.5 55 12.8 48 48 NW 12 19 29.74 1007 10 16 0.04 1.02
6:58 pm 18:58 Mostly Cloudy 75 23.8 49 9.7 41 41 E 14 22 29.71 1006 10 16 0.00 0.00
7:58 pm 19:58 Sunny 73 22.7 51 10.5 46 46 Calm 29.69 1005 10 16 0.00 0.00
8:58 pm 20:58 Mostly Clear 72 22.3 50 10.1 46 46 Calm 29.73 1007 10 16 0.00 0.00
9:58 pm 21:58 Mostly Clear 68 19.8 48 8.8 49 49 SSW 8 13 29.73 1007 10 16 0.00 0.00
10:58 pm 22:58 Partly Cloudy 69 20.8 51 10.3 51 51 S 10 17 29.70 1006 10 16 0.00 0.00
11:58 pm 23:58 Clear 65 18.2 51 10.3 60 60 E 10 17 29.70 1006 10 16 0.00 0.00

Powered by AerisWeather